FW7166 Weather Reports


Display with metric or nautical units.
time (UTC)temp
F
wind
direction
speed
MPH
gust
MPH
rain 1hr
in
rain 24hr
in
rain mn
in
humidity
%
barometer
mb
20260902165227 61 287 0.0 14.0 0.00 0.00 0.03 87 1013.5
20260902164211 62 239 0.0 14.0 0.00 0.00 0.03 86 1013.7
20260902163712 62 268 0.0 14.0 0.00 0.00 0.03 86 1013.7
20260902163211 62 235 0.0 14.0 0.00 0.00 0.03 88 1013.4
20260902162712 61 240 0.0 14.0 0.00 0.00 0.03 88 1013.8
20260902162211 61 288 0.0 14.0 0.00 0.00 0.03 90 1013.5
20260902161709 60 211 1.0 14.0 0.00 0.00 0.03 90 1013.3
20260902161209 60 246 0.0 14.0 0.00 0.00 0.03 91 1013.6
20260902160709 60 205 0.0 14.0 0.00 0.00 0.03 91 1013.9
20260902160208 60 228 0.0 14.0 0.00 0.00 0.03 91 1014.1
20260902155708 61 237 0.0 14.0 0.00 0.00 0.03 91 1013.6
20260902154653 61 247 1.0 14.0 0.00 0.00 0.03 91 1013.5
20260902153638 61 243 0.0 14.0 0.00 0.00 0.03 90 1013.6
20260902153137 61 242 1.0 14.0 0.00 0.00 0.03 90 1013.5
20260902152120 61 228 1.0 14.0 0.00 0.00 0.03 89 1013.8
20260902151619 61 224 1.0 14.0 0.01 0.00 0.03 90 1013.4
20260902151118 61 173 2.0 14.0 0.01 0.00 0.03 90 1013.8
20260902150618 61 210 1.0 14.0 0.01 0.00 0.03 91 1013.5
20260902150118 61 178 0.0 14.0 0.01 0.00 0.03 91 1013.6
20260902145617 61 217 1.0 14.0 0.01 0.00 0.03 91 1013.6
20260902145116 61 265 1.0 14.0 0.01 0.00 0.03 91 1013.8
20260902144616 61 262 0.0 14.0 0.01 0.00 0.03 91 1013.6
20260902144116 61 214 2.0 14.0 0.01 0.00 0.03 90 1013.8
20260902143616 61 259 0.0 14.0 0.00 0.00 0.02 90 1013.8
20260902143115 61 201 1.0 14.0 0.00 0.00 0.02 90 1013.8
20260902142615 61 231 1.0 14.0 0.00 0.00 0.02 89 1013.9
20260902142115 61 211 1.0 14.0 0.00 0.00 0.02 88 1013.8
20260902141615 62 290 0.0 14.0 0.00 0.00 0.01 86 1013.8
20260902140558 64 218 0.0 14.0 0.00 0.00 0.01 80 1013.5
20260902140057 65 188 3.0 14.0 0.00 0.00 0.01 76 1013.7
20260902135557 65 255 1.0 11.0 0.00 0.00 0.01 74 1013.4
20260902135056 65 226 2.0 11.0 0.00 0.00 0.01 72 1014.2
20260902134556 65 159 0.0 11.0 0.00 0.00 0.01 75 1013.8
20260902134055 64 255 0.0 11.0 0.00 0.00 0.01 75 1013.3
20260902133554 64 222 2.0 11.0 0.00 0.00 0.01 75 1014.0
20260902132024 65 234 1.0 11.0 0.00 0.00 0.01 77 1013.5
20260902131523 65 127 1.0 11.0 0.00 0.00 0.01 78 1013.6
20260902130508 64 200 2.0 11.0 0.00 0.00 0.01 80 1013.6
20260902130007 64 204 0.0 11.0 0.00 0.00 0.01 81 1013.9
20260902125506 64 268 0.0 11.0 0.00 0.00 0.01 82 1013.8
20260902125006 64 237 1.0 11.0 0.00 0.00 0.01 81 1013.8
20260902124505 64 236 2.0 11.0 0.00 0.00 0.01 82 1013.9
20260902124005 63 198 2.0 11.0 0.00 0.00 0.01 82 1014.1
20260902123505 63 205 4.0 11.0 0.00 0.00 0.01 80 1013.8
20260902123004 63 212 3.0 11.0 0.00 0.00 0.01 80 1013.6
20260902122503 63 196 2.0 11.0 0.00 0.00 0.01 80 1014.0
20260902120930 64 224 1.0 11.0 0.00 0.00 0.01 79 1014.0
20260902120430 65 228 1.0 12.0 0.00 0.00 0.01 76 1013.9
20260902115928 65 218 1.0 12.0 0.00 0.00 0.01 75 1014.0
20260902115427 66 219 3.0 12.0 0.00 0.00 0.01 75 1014.0
20260902114926 66 221 2.0 12.0 0.00 0.00 0.01 74 1013.6
20260902113910 66 216 3.0 12.0 0.00 0.00 0.01 73 1014.2
20260902113410 67 197 2.0 11.0 0.00 0.00 0.01 74 1013.9
20260902112910 66 212 3.0 11.0 0.00 0.00 0.01 75 1013.9
20260902112410 66 195 2.0 11.0 0.00 0.00 0.01 75 1013.8
20260902110837 65 140 3.0 11.0 0.00 0.00 0.01 78 1014.0
20260902105822 66 200 2.0 11.0 0.00 0.00 0.01 77 1014.0
20260902105322 65 221 1.0 11.0 0.00 0.00 0.01 79 1013.9
20260902104822 64 181 1.0 11.0 0.00 0.00 0.01 81 1014.2
20260902104322 64 189 2.0 11.0 0.00 0.00 0.01 81 1014.0
20260902103822 64 223 1.0 11.0 0.00 0.00 0.01 81 1014.4
20260902103321 64 221 1.0 11.0 0.00 0.00 0.01 82 1014.0
20260902102821 63 224 2.0 11.0 0.00 0.00 0.01 82 1013.9
20260902101804 63 186 1.0 11.0 0.00 0.00 0.01 81 1013.9
20260902101303 63 200 3.0 11.0 0.00 0.00 0.01 80 1014.3
20260902100802 64 216 2.0 11.0 0.00 0.00 0.01 80 1014.0
20260902100301 64 213 0.0 11.0 0.00 0.00 0.01 80 1014.2
20260902095800 63 181 0.0 11.0 0.00 0.00 0.01 81 1013.8
20260902095300 63 205 1.0 11.0 0.00 0.00 0.01 81 1014.0
20260902094759 63 212 0.0 11.0 0.00 0.00 0.01 82 1014.5
20260902094258 63 165 0.0 11.0 0.00 0.00 0.01 82 1014.2
20260902093758 63 164 1.0 11.0 0.00 0.00 0.01 82 1014.4
20260902093257 63 240 1.0 11.0 0.00 0.00 0.01 81 1014.4
20260902092757 64 241 0.0 11.0 0.00 0.00 0.01 82 1014.2
20260902092256 64 226 1.0 11.0 0.00 0.00 0.01 84 1014.1
20260902091755 63 214 0.0 11.0 0.00 0.00 0.01 85 1014.7
20260902090739 63 170 1.0 11.0 0.00 0.00 0.01 86 1014.3
20260902090238 62 187 1.0 11.0 0.00 0.00 0.01 88 1014.5
20260902085737 62 225 0.0 11.0 0.00 0.00 0.01 88 1014.6
20260902085236 61 251 0.0 11.0 0.00 0.00 0.01 90 1014.4
20260902084735 61 199 0.0 11.0 0.00 0.00 0.01 89 1014.3
20260902084234 61 232 1.0 11.0 0.00 0.00 0.01 89 1014.3
20260902082702 61 186 0.0 11.0 0.00 0.00 0.01 89 1014.7
20260902082201 61 189 1.0 11.0 0.00 0.00 0.01 89 1014.1
20260902081701 61 202 1.0 11.0 0.00 0.00 0.01 89 1014.4
20260902081201 61 207 1.0 11.0 0.00 0.00 0.01 90 1014.6
20260902080700 61 199 1.0 11.0 0.00 0.00 0.01 91 1014.5
20260902080200 61 234 0.0 11.0 0.00 0.00 0.01 93 1014.0
20260902075700 60 236 0.0 11.0 0.00 0.00 0.01 93 1014.2
20260902075200 60 233 1.0 11.0 0.00 0.00 0.01 94 1014.2
20260902074659 60 207 0.0 11.0 0.00 0.00 0.01 95 1013.9
20260902073643 59 187 0.0 11.0 0.00 0.00 0.01 96 1014.3
20260902073143 59 238 0.0 11.0 0.00 0.00 0.01 96 1014.4
20260902072642 59 243 0.0 11.0 0.00 0.00 0.01 96 1014.0
20260902071627 59 266 0.0 11.0 0.00 0.00 0.01 96 1014.2
20260902071126 58 216 0.0 11.0 0.00 0.00 0.01 97 1014.4
20260902070626 58 276 0.0 11.0 0.00 0.00 0.01 97 1014.3
20260902065611 58 181 0.0 11.0 0.00 0.00 0.01 97 1014.3
20260902065110 58 180 0.0 11.0 0.01 0.00 0.01 97 1014.5
20260902064610 58 171 0.0 11.0 0.01 0.00 0.01 97 1014.5
20260902064110 58 225 0.0 11.0 0.01 0.00 0.01 97 1014.1
20260902063610 57 264 0.0 11.0 0.01 0.00 0.01 97 1014.3
20260902063110 57 185 0.0 11.0 0.01 0.00 0.01 97 1014.4
20260902062055 57 190 0.0 11.0 0.01 0.00 0.01 97 1014.3
20260902061554 56 83 0.0 11.0 0.01 0.00 0.01 97 1014.3
20260902061053 56 128 0.0 11.0 0.01 0.00 0.01 97 1014.3
20260902060036 56 249 0.0 11.0 0.01 0.00 0.01 97 1014.2
20260902055536 55 249 0.0 11.0 0.01 0.00 0.01 97 1013.9
20260902055036 55 232 0.0 11.0 0.00 0.00 0.00 97 1014.2
20260902054536 55 122 0.0 11.0 0.00 0.00 0.00 97 1014.3
20260902054036 55 119 0.0 11.0 0.00 0.00 0.00 97 1014.2
20260902053536 55 159 0.0 11.0 0.00 0.00 0.00 97 1014.3
20260902053036 54 145 0.0 11.0 0.00 0.00 0.00 97 1014.1
20260902052535 54 139 0.0 11.0 0.00 0.00 0.00 97 1014.2
20260902051519 54 140 0.0 11.0 0.00 0.00 0.00 97 1014.2
20260902051018 54 143 0.0 11.0 0.00 0.00 0.00 97 1014.6
20260902050518 53 139 0.0 11.0 0.00 0.00 0.00 97 1014.1
20260902050017 53 138 0.0 11.0 0.00 0.00 0.00 96 1014.4
20260902045516 53 139 0.0 11.0 0.00 0.00 0.00 96 1014.5
20260902045015 53 139 1.0 11.0 0.00 0.00 0.00 97 1014.2
20260902044514 53 143 0.0 11.0 0.00 0.00 0.00 97 1014.3
20260902044013 52 146 0.0 11.0 0.00 0.00 0.00 96 1014.5
20260902043513 52 145 0.0 11.0 0.00 0.00 0.00 96 1014.7
20260902043013 52 145 0.0 11.0 0.00 0.00 0.00 96 1014.3
20260902042512 52 146 0.0 11.0 0.00 0.00 0.00 96 1014.4
20260902041456 52 147 0.0 11.0 0.00 0.00 0.00 96 1014.3
20260902040955 52 149 0.0 11.0 0.00 0.00 0.00 95 1014.4
20260902040455 52 151 0.0 11.0 0.00 0.00 0.00 95 1014.6
20260902034924 52 185 0.0 11.0 0.00 0.00 0.00 95 1014.7
20260902034423 52 184 0.0 11.0 0.00 0.00 0.00 95 1014.7
20260902033407 52 185 0.0 11.0 0.00 0.00 0.00 94 1014.7
20260902032906 52 185 0.0 11.0 0.00 0.00 0.00 94 1014.9
20260902032405 52 179 0.0 11.0 0.00 0.00 0.00 94 1014.6
20260902025802 53 199 0.0 11.0 0.00 0.00 0.00 92 1014.6
20260902025306 53 199 0.0 11.0 0.00 0.00 0.00 92 1014.9
20260902024802 53 198 0.0 11.0 0.00 0.00 0.00 92 1014.9
20260902023746 54 197 0.0 11.0 0.00 0.00 0.00 92 1014.7
20260902023246 54 197 0.0 11.0 0.00 0.00 0.00 93 1014.6
20260902022746 53 194 0.0 11.0 0.00 0.00 0.00 93 1014.8
20260902022245 53 239 0.0 11.0 0.00 0.00 0.00 93 1014.5
20260902021744 53 243 0.0 11.0 0.00 0.00 0.00 93 1014.5
20260902021244 53 241 0.0 11.0 0.00 0.00 0.00 92 1014.9
20260902020744 53 242 0.0 11.0 0.00 0.00 0.00 92 1014.4
20260902015729 53 261 0.0 11.0 0.00 0.00 0.00 92 1014.7
20260902015229 54 258 0.0 11.0 0.00 0.00 0.00 92 1014.5
20260902014728 54 248 0.0 11.0 0.00 0.00 0.00 92 1014.3
20260902014228 54 250 0.0 11.0 0.00 0.00 0.00 92 1014.4
20260902013728 54 249 0.0 11.0 0.00 0.00 0.00 92 1014.4
20260902013228 54 254 0.0 11.0 0.00 0.00 0.00 92 1014.6
20260902012728 54 269 0.0 11.0 0.00 0.00 0.00 92 1014.5
20260902012227 54 200 0.0 11.0 0.00 0.00 0.00 91 1014.7
20260902011727 54 191 0.0 11.0 0.00 0.00 0.00 91 1014.5
20260902010711 54 202 0.0 11.0 0.00 0.00 0.00 91 1014.7
20260902010210 54 234 0.0 11.0 0.00 0.00 0.00 91 1014.4
20260902005709 54 233 0.0 11.0 0.00 0.00 0.00 90 1014.1
20260902005209 55 234 0.0 11.0 0.00 0.00 0.00 90 1014.5
20260902004709 55 233 0.0 11.0 0.00 0.00 0.00 90 1014.3
20260902004208 55 233 0.0 11.0 0.00 0.00 0.00 89 1014.5
20260902003153 55 230 0.0 11.0 0.00 0.00 0.00 89 1014.7
20260902002653 56 231 0.0 11.0 0.00 0.00 0.00 89 1014.3
20260902002152 56 216 0.0 11.0 0.00 0.00 0.00 89 1014.3
20260902001652 56 244 0.0 11.0 0.00 0.00 0.00 89 1014.5
20260902001152 56 198 0.0 11.0 0.00 0.00 0.00 89 1014.8
20260902000651 56 245 0.0 11.0 0.00 0.00 0.00 89 1014.4
20260902000151 56 224 0.0 11.0 0.00 0.00 0.00 89 1014.5
20260901235650 56 232 0.0 11.0 0.00 0.00 0.00 89 1014.4
20260901235149 57 258 0.0 11.0 0.00 0.00 0.00 89 1014.3
20260901234133 57 252 1.0 11.0 0.00 0.00 0.00 89 1014.7
20260901233633 57 241 0.0 11.0 0.00 0.00 0.00 89 1014.3
20260901233133 57 226 0.0 11.0 0.00 0.00 0.00 89 1014.3
20260901232633 57 225 1.0 11.0 0.00 0.00 0.00 90 1014.4
20260901232133 57 194 0.0 11.0 0.00 0.00 0.00 90 1014.5
20260901231117 57 280 0.0 11.0 0.00 0.00 0.00 91 1014.0
20260901225602 57 247 1.0 11.0 0.00 0.00 0.00 92 1014.3
20260901224546 57 224 1.0 11.0 0.00 0.00 0.00 93 1014.2
20260901224045 57 213 0.0 11.0 0.00 0.00 0.00 93 1014.7
20260901223544 57 213 0.0 11.0 0.00 0.00 0.00 93 1014.6
20260901223044 57 282 0.0 11.0 0.00 0.00 0.00 93 1014.2
20260901222543 57 344 0.0 11.0 0.00 0.00 0.00 93 1014.3
20260901222043 56 338 0.0 11.0 0.00 0.00 0.00 94 1014.4
20260901221542 56 212 0.0 11.0 0.00 0.00 0.00 94 1014.4
20260901221042 56 186 0.0 11.0 0.00 0.00 0.00 94 1014.5
20260901220541 56 187 0.0 11.0 0.00 0.00 0.00 93 1014.8
20260901220040 56 188 0.0 11.0 0.00 0.00 0.00 93 1014.9
20260901215024 56 189 0.0 11.0 0.00 0.00 0.33 93 1014.5
20260901214008 56 188 0.0 11.0 0.00 0.00 0.33 92 1014.4
20260901212437 56 176 0.0 11.0 0.00 0.00 0.33 92 1014.7
20260901211938 57 177 0.0 11.0 0.00 0.00 0.33 92 1014.6
20260901211437 57 176 0.0 11.0 0.00 0.00 0.33 92 1014.4
20260901210937 57 177 0.0 11.0 0.00 0.00 0.33 92 1014.4
20260901205922 57 177 0.0 11.0 0.00 0.00 0.33 91 1014.3
20260901204906 57 173 0.0 11.0 0.00 0.00 0.33 91 1014.3
20260901204405 57 187 0.0 11.0 0.00 0.00 0.33 91 1014.6
20260901203906 57 227 0.0 11.0 0.00 0.00 0.33 90 1014.0
20260901203405 57 223 0.0 11.0 0.00 0.00 0.33 90 1014.2
20260901202904 58 234 0.0 11.0 0.00 0.00 0.33 90 1014.0
20260901202403 58 230 0.0 11.0 0.00 0.00 0.33 90 1014.0
20260901201903 58 234 0.0 11.0 0.00 0.00 0.33 90 1014.1
20260901201404 58 226 0.0 11.0 0.00 0.00 0.33 90 1013.8
20260901200903 58 186 0.0 11.0 0.00 0.00 0.33 90 1014.5
20260901200404 58 311 0.0 11.0 0.00 0.00 0.33 90 1013.8
20260901195903 58 204 0.0 11.0 0.00 0.00 0.33 90 1014.3
20260901195404 58 204 0.0 11.0 0.00 0.00 0.33 90 1014.4
20260901194904 58 205 0.0 11.0 0.00 0.00 0.33 89 1014.3
20260901193846 58 204 0.0 11.0 0.00 0.00 0.33 89 1014.2
20260901193345 59 204 0.0 11.0 0.00 0.00 0.33 89 1014.0
20260901192330 59 256 0.0 11.0 0.00 0.00 0.33 88 1013.9
20260901191830 59 202 0.0 11.0 0.00 0.00 0.33 88 1013.9
20260901191328 59 184 0.0 11.0 0.00 0.00 0.33 88 1013.9
20260901190311 59 211 0.0 11.0 0.00 0.00 0.33 87 1014.1
20260901185811 59 271 0.0 11.0 0.00 0.00 0.33 87 1014.0
20260901185310 60 271 0.0 11.0 0.00 0.00 0.33 87 1014.0
20260901183739 60 248 0.0 11.0 0.00 0.00 0.33 86 1013.6
20260901182724 60 254 0.0 11.0 0.00 0.00 0.33 86 1013.8
20260901181709 60 256 0.0 11.0 0.00 0.00 0.33 85 1013.6
20260901181209 61 278 0.0 11.0 0.00 0.00 0.33 85 1013.4
20260901180154 61 264 0.0 11.0 0.00 0.00 0.33 84 1013.4
20260901175140 61 302 0.0 11.0 0.00 0.00 0.33 83 1013.3
20260901174639 62 196 0.0 11.0 0.00 0.00 0.33 82 1013.8
20260901174139 62 193 0.0 11.0 0.00 0.00 0.33 82 1013.6
20260901173637 62 249 0.0 11.0 0.00 0.00 0.33 81 1013.3
20260901173138 62 263 0.0 11.0 0.00 0.00 0.33 81 1013.4
20260901172638 62 235 0.0 11.0 0.00 0.00 0.33 80 1013.4
20260901172137 63 278 0.0 11.0 0.00 0.00 0.33 80 1013.4
20260901171636 63 274 1.0 11.0 0.00 0.00 0.33 79 1013.1
20260901171136 63 270 0.0 11.0 0.00 0.00 0.33 79 1012.9
20260901170635 63 207 0.0 11.0 0.00 0.00 0.33 78 1013.7
20260901170135 63 220 0.0 11.0 0.00 0.00 0.33 77 1012.9
20260901165634 63 228 0.0 11.0 0.00 0.00 0.33 77 1013.1